Total_Precipitation_Accumulation
0.13 0.18 0.23 0.27 0.23 0.19 0.16 0.16 0.24 0.37 0.55 0.70 0.86 0.91 0.95 0.94 0.88 0.84 0.83 0.82 0.76 0.78 0.90 1.02 1.18 1.30 1.45 1.50 1.70 1.82 2.09 2.25 2.28 2.39 2.38 2.39 2.51 2.53 2.46 2.49 2.52 2.70 2.77 2.81
0.10 0.12 0.17 0.20 0.22 0.17 0.15 0.14 0.19 0.34 0.64 0.73 0.84 0.93 0.96 0.91 0.87 0.85 0.85 0.86 0.92 0.95 1.03 1.14 1.19 1.32 1.44 1.53 1.76 2.01 2.26 2.53 2.58 2.63 2.61 2.67 2.81 2.86 2.79 2.79 2.93 2.95 2.83 2.76
0.16 0.17 0.17 0.22 0.22 0.20 0.21 0.20 0.25 0.40 0.60 0.69 0.80 0.92 1.07 1.04 0.96 0.95 0.98 1.01 1.08 1.21 1.20 1.21 1.27 1.40 1.59 1.74 1.95 2.14 2.30 2.53 2.71 2.81 2.86 2.95 3.02 3.03 2.98 3.09 3.29 3.26 3.09 2.88
0.21 0.27 0.32 0.27 0.26 0.26 0.30 0.33 0.38 0.51 0.59 0.80 1.01 1.12 1.33 1.38 1.18 1.11 1.04 1.04 1.14 1.32 1.36 1.34 1.39 1.52 1.77 1.96 2.23 2.46 2.57 2.65 2.77 2.87 2.93 3.00 3.08 2.97 3.00 3.16 3.22 3.22 3.10 2.94
0.30 0.35 0.36 0.37 0.40 0.43 0.50 0.63 0.63 0.76 0.88 1.06 1.19 1.21 1.37 1.27 1.11 1.08 1.11 1.20 1.30 1.43 1.49 1.57 1.62 1.73 1.86 2.01 2.26 2.54 2.74 2.73 2.71 2.83 2.96 3.01 3.02 3.02 3.08 3.13 3.01 2.87 2.77 2.74
0.43 0.49 0.54 0.56 0.58 0.56 0.66 1.19 1.20 1.20 1.19 1.22 1.32 1.59 1.57 1.30 1.15 1.15 1.22 1.28 1.38 1.48 1.51 1.59 1.67 1.71 1.82 2.03 2.29 2.53 2.74 2.81 2.81 2.91 2.98 3.01 3.10 3.15 3.09 3.03 2.93 2.82 2.64 2.61
0.61 0.70 0.70 0.62 0.58 0.63 1.08 1.50 1.37 1.35 1.39 1.37 1.55 1.63 1.53 1.39 1.37 1.31 1.34 1.45 1.48 1.54 1.52 1.51 1.62 1.72 1.87 2.00 2.16 2.38 2.62 2.84 3.04 3.16 3.17 3.16 3.19 3.08 3.00 2.92 2.93 2.87 2.72 2.59
0.84 1.09 1.21 0.81 0.68 1.01 1.40 1.25 1.39 1.53 1.49 1.48 1.49 1.42 1.42 1.43 1.45 1.42 1.41 1.47 1.49 1.52 1.61 1.67 1.78 1.86 1.96 1.93 2.05 2.28 2.40 2.61 2.77 2.94 3.04 3.03 3.08 3.02 3.07 3.00 2.86 2.73 2.59 2.43
1.19 1.35 1.20 0.99 1.02 1.19 1.25 1.34 1.41 1.58 1.66 1.59 1.64 1.57 1.43 1.47 1.44 1.57 1.68 1.70 1.65 1.56 1.63 1.79 1.89 1.96 2.03 2.02 1.98 2.06 2.20 2.40 2.62 2.79 3.05 3.17 3.21 3.15 3.03 2.93 2.73 2.52 2.37 2.21
1.46 1.51 1.37 1.31 1.26 1.25 1.26 1.36 1.44 1.57 1.68 1.74 1.69 1.57 1.50 1.47 1.37 1.35 1.44 1.50 1.64 1.61 1.66 2.01 1.99 1.94 1.99 2.04 2.04 2.10 2.20 2.30 2.46 2.60 2.77 3.03 3.11 3.04 2.87 2.62 2.45 2.38 2.30 2.25
1.68 1.76 1.54 1.45 1.39 1.46 1.44 1.41 1.42 1.52 1.59 1.64 1.54 1.47 1.51 1.57 1.43 1.36 1.40 1.38 1.39 1.48 1.55 1.68 1.77 1.81 1.82 1.90 1.99 2.03 2.06 2.09 2.13 2.32 2.51 2.69 2.73 2.65 2.49 2.36 2.40 2.41 2.36 2.32
1.98 1.79 1.78 1.81 1.66 1.63 1.71 1.68 1.66 1.70 1.84 1.80 1.58 1.53 1.48 1.43 1.37 1.28 1.23 1.34 1.39 1.37 1.40 1.50 1.57 1.69 1.78 1.93 2.07 2.13 2.09 2.05 1.98 1.93 2.03 2.31 2.59 2.66 2.53 2.30 2.30 2.21 2.11 2.06
1.75 1.71 1.80 1.85 1.87 1.89 1.96 1.91 1.88 1.90 1.94 1.87 1.70 1.59 1.48 1.42 1.31 1.26 1.20 1.29 1.49 1.55 1.54 1.63 1.62 1.57 1.64 1.86 2.03 2.17 2.10 2.06 1.95 1.85 1.88 2.06 2.38 2.67 2.74 2.50 2.25 2.10 1.86 1.69
1.65 1.82 2.05 2.08 2.12 2.08 2.00 2.00 2.02 2.07 1.99 1.94 1.81 1.61 1.50 1.54 1.49 1.37 1.32 1.36 1.54 1.71 1.73 1.75 1.73 1.72 1.73 1.84 1.94 2.01 2.01 2.02 1.89 1.79 1.87 1.99 2.20 2.49 2.68 2.63 2.41 2.11 1.81 1.60
1.86 1.87 1.91 1.88 2.01 2.04 2.01 2.04 2.00 2.11 2.10 2.03 1.88 1.71 1.52 1.46 1.48 1.43 1.42 1.52 1.72 1.82 1.77 1.73 1.75 1.73 1.64 1.61 1.73 1.87 1.95 1.97 1.94 1.87 1.87 1.87 2.05 2.35 2.54 2.58 2.45 2.25 1.93 1.64
2.08 1.95 1.77 1.78 1.98 2.02 2.01 2.04 1.94 2.01 2.10 2.05 1.89 1.81 1.77 1.70 1.64 1.53 1.53 1.64 1.93 2.03 1.89 1.82 1.83 1.78 1.65 1.60 1.62 1.68 1.74 1.79 1.70 1.68 1.73 1.70 1.75 1.92 2.21 2.39 2.34 2.27 2.02 1.59
2.04 2.13 2.05 2.01 2.05 2.07 2.06 1.97 1.89 1.95 2.04 2.10 2.05 1.97 1.99 2.00 1.99 1.93 1.88 1.89 2.01 2.06 1.89 1.79 1.77 1.69 1.56 1.55 1.59 1.53 1.51 1.56 1.53 1.40 1.51 1.59 1.67 1.81 2.08 2.29 2.24 2.15 1.97 1.67
1.84 1.84 1.86 1.97 2.09 2.13 2.02 1.87 1.83 1.83 1.89 1.99 2.05 2.02 2.05 2.15 2.26 2.36 2.29 2.12 2.00 1.87 1.74 1.64 1.62 1.56 1.45 1.40 1.36 1.32 1.30 1.33 1.33 1.27 1.36 1.46 1.56 1.79 2.05 2.17 2.10 2.00 1.88 1.70
1.73 1.74 1.74 1.75 1.85 1.89 1.78 1.77 1.72 1.62 1.58 1.67 1.80 1.89 1.95 2.02 2.12 2.32 2.26 2.21 2.17 2.01 1.71 1.52 1.57 1.43 1.36 1.35 1.36 1.29 1.21 1.22 1.24 1.23 1.28 1.39 1.53 1.70 1.85 1.89 1.87 1.87 1.72 1.56
1.79 1.76 1.72 1.78 1.84 1.80 1.68 1.59 1.64 1.58 1.56 1.60 1.59 1.61 1.71 1.79 1.89 2.12 2.18 2.21 2.14 1.92 1.65 1.50 1.34 1.25 1.18 1.16 1.20 1.22 1.27 1.33 1.37 1.40 1.44 1.51 1.59 1.69 1.73 1.70 1.64 1.62 1.58 1.56
1.69 1.67 1.62 1.75 1.78 1.65 1.52 1.43 1.50 1.53 1.52 1.48 1.43 1.44 1.47 1.54 1.66 1.90 2.21 2.36 2.04 1.65 1.44 1.40 1.23 1.11 1.05 1.09 1.10 1.09 1.20 1.32 1.38 1.45 1.50 1.56 1.63 1.66 1.66 1.62 1.51 1.47 1.46 1.49
1.63 1.59 1.56 1.62 1.68 1.60 1.36 1.30 1.32 1.34 1.34 1.26 1.21 1.28 1.34 1.45 1.55 1.69 1.88 2.14 2.06 1.87 1.45 1.23 1.13 1.06 1.03 1.04 0.97 1.02 1.10 1.19 1.32 1.35 1.39 1.48 1.58 1.64 1.61 1.55 1.48 1.43 1.43 1.46
1.75 1.59 1.57 1.61 1.70 1.59 1.37 1.28 1.29 1.38 1.33 1.27 1.26 1.30 1.33 1.45 1.53 1.76 1.90 1.79 1.77 1.84 1.48 1.29 1.32 1.20 1.04 0.95 0.94 0.97 1.03 1.12 1.26 1.35 1.38 1.45 1.49 1.51 1.51 1.45 1.44 1.42 1.42 1.37
1.89 1.72 1.63 1.58 1.61 1.55 1.51 1.38 1.28 1.39 1.36 1.24 1.20 1.20 1.24 1.37 1.38 1.43 1.60 1.72 1.74 1.70 1.41 1.32 1.32 1.16 1.02 0.94 1.01 1.08 1.18 1.27 1.29 1.28 1.24 1.30 1.36 1.34 1.33 1.28 1.25 1.29 1.29 1.27
1.93 1.81 1.70 1.60 1.60 1.50 1.42 1.35 1.32 1.37 1.30 1.24 1.25 1.27 1.24 1.28 1.38 1.41 1.42 1.45 1.62 1.62 1.40 1.35 1.24 1.15 1.03 0.98 1.09 1.24 1.30 1.23 1.19 1.17 1.17 1.21 1.30 1.31 1.24 1.25 1.29 1.24 1.21 1.20
1.89 1.85 1.77 1.63 1.51 1.42 1.36 1.34 1.40 1.43 1.36 1.37 1.39 1.35 1.30 1.31 1.37 1.39 1.40 1.38 1.41 1.51 1.40 1.24 1.09 1.05 1.06 1.09 1.11 1.17 1.16 1.13 1.11 1.12 1.12 1.15 1.21 1.24 1.20 1.21 1.22 1.19 1.21 1.23
1.85 1.83 1.77 1.65 1.55 1.44 1.41 1.46 1.48 1.50 1.47 1.47 1.50 1.47 1.49 1.50 1.52 1.54 1.48 1.41 1.33 1.29 1.22 1.11 1.01 0.95 0.95 1.00 0.98 1.00 1.03 1.06 1.03 1.03 1.07 1.11 1.16 1.18 1.11 1.11 1.12 1.13 1.16 1.16